Aérodrome :
LOGIN :

S'inscrire | Disclaimer

   EN    FR    IT 

 










Légende :    VFR   VFR Marginal   IFR   IFR Intensif   IFR Très Intensif
Visi : 
Plafond : 
>= 8 km
>= 3000ft
5 à 8 km
1000 à 3000 ft
1500m à 5 km
500 à 1000 ft
800 à 1500m
200 à 500 ft
< 800m
< 200 ft
Symboles :   Orages  Brouillard  Fortes neiges  Fortes précipitations  Vent > 20 kt
SIGMETs :   Divers  Orages  Givrage  Turbulence  Onde Orograph.  Cendres Volcan.







- Altitude de l'aérodrome : 1302 ft
- Code IATA : GNB
- Voir les cartes d'approche


LFLS - Grenoble / St. Geoirs

DERNIER METAR :
  • 221030Z AUTO 34007KT 300V070 9999 FEW034 SCT043 18/09 Q1018 NOSIG

METARs EXPIRÉS :
  • 221000Z AUTO 35006KT 310V030 9999 FEW035 18/10 Q1018 NOSIG
  • 220930Z AUTO 33007KT 310V030 CAVOK 17/10 Q1018 NOSIG
  • 220900Z AUTO 34005KT 280V060 CAVOK 17/09 Q1018 NOSIG
  • 220830Z AUTO 36006KT 340V040 9999 FEW030 17/10 Q1018 NOSIG
  • 220800Z AUTO 30004KT 260V340 CAVOK 15/09 Q1018 NOSIG
  • 220730Z AUTO 28004KT 240V010 CAVOK 14/09 Q1018 NOSIG

TAF TAF LFLS
Valide du 22 à 09h jusqu'au 23 à 09h UTC


220800Z 2209/2309 35008KT 9999 SCT030
BECMG 2219/2221 VRB02KT
ATIS : +33 4 76 65 55 89
Pas de NOTAMs connus pour ce terrain.



MET'MAP, la Météo Aéronautique d'un coup d'oeil ! - Copyright ORBIFLY Décembre 2007 - Disclaimer

ORBIFLY MET'MAP TEAM :

Programmation & Développement : Alexandra Zaïnal
Conception & Développement : Baudouin d'Aumeries
Co-Programmation & Développement : Marc-Olivier Méhu
Soutien technique & logistique : Manuel Goepfert

Contact : metmap@orbifly.com




SOURCES & CREDITS :

   NOAA